THOR ABLESTAR DEB, 15558

Orbit data source: Space-Track

THOR ABLESTAR DEB, 15558 is space debris in LEO originally from a launch on Thu, 29 Jun 1961 UTC launched from the Air Force Eastern Test Range (AFETR). Debris objects in space refer to the collection of defunct objects orbiting the Earth. Examples of debris include non-operational satellites, rocket bodies, and fragments generated from explosions, collisions, or faulty payload assembly.

Loading next visibility...
Identifier
15558, 1961-015LE
Orbit
LEO
Country
Flag of USUS
Related business
Manufacturer
Unknown
Mission
Spacecraft
Bus & Motor
Unknown
Mass
Unknown
Launch date (UTC)
1961-06-29 (65 years ago)
Launch vehicle
Unknown
Launch site
Air Force Eastern Test Range (AFETR)
Object type
Payload
Rocket body
Debris
Shape & HBR
Unknown shape, 0.1 m
Radar Cross Section
Small (<0.1 m²)

Expand to show TLE details & history
Last TLE update: 1 day ago

TLE from 1 day ago
0 THOR ABLESTAR DEB
1 15558U 61015LE  26119.24779286  .00000106  00000-0  11997-3 0  9998
2 15558  65.5874 315.3795 0042181 107.0830 253.4872 14.04903714117406
Epoch: 2026-04-29T05:56Z
TLE epoch observation values (Epoch: 2026-04-29T05:56:49.303Z)
Latitude
-0.00007°
Longitude
8.96256°
Altitude
887.676 km
Speed
7.404 km/s
True Right ascension
21h 01m 31s
True Declination
0° 00' 00"
Sunlit
Object was in daylight at epoch
Visualization orbit readout
Latitude
Unknown
Longitude
Unknown
Altitude
Unknown
Speed
Unknown
Apparent Right ascension
Unknown
Apparent Declination
Unknown
Sunlit
N/A
Visualization observer readout
Local Sidereal Time
14:31:33
Azimuth
Unknown
Elevation
Unknown
Doppler factor
Unknown
Orbital elements
Apogee altitude
905.985 km
Perigee altitude
844.793 km
Semi-major axis
7,253.526 km
Eccentricity
0.00422
Inclination
65.5874°
RAAN
315.3795°
Arg. of periapsis
107.083°
True anomaly
253.02448°
Mean anomaly
253.4872°
Eccentric anomaly
253.25577°
Mean motion
3.51333 °/min
Orbital period
102.47 mins
BSTAR
0.00011997
Loading maneuver chart data...
Computing Atmospheric mass density...

Documentation

Showing up to 5 results
|